| time (UTC) | temp C | wind direction | speed KPH | gust KPH | rain 1hr cm | rain 24hr cm | rain mn cm | humidity % | barometer mb |
| 20260506201545 | 12 | 94 | 0.0 | 0.0 | 0.08 | 1.17 | 1.17 | 97 | 1010.9 |
| 20260506200117 | 12 | 15 | 0.0 | 0.0 | 0.08 | 1.17 | 1.17 | 98 | 1010.8 |
| 20260506194544 | 12 | 15 | 0.0 | 0.0 | 0.08 | 1.17 | 1.17 | 98 | 1010.7 |
| 20260506193046 | 12 | 15 | 0.0 | 0.0 | 0.00 | 1.09 | 1.09 | 97 | 1010.4 |
| 20260506191546 | 12 | 15 | 0.0 | 0.0 | 0.20 | 1.09 | 1.09 | 97 | 1010.5 |
| 20260506190045 | 12 | 15 | 0.0 | 0.0 | 0.25 | 1.09 | 1.09 | 97 | 1010.4 |
| 20260506184543 | 12 | 91 | 0.0 | 0.0 | 0.33 | 1.09 | 1.09 | 97 | 1010.2 |
| 20260506183042 | 12 | 91 | 0.0 | 0.0 | 0.33 | 1.09 | 1.09 | 97 | 1010.0 |
| 20260506181543 | 12 | 64 | 0.0 | 0.0 | 0.13 | 0.89 | 0.89 | 97 | 1009.6 |
| 20260506180049 | 12 | 70 | 0.0 | 0.0 | 0.05 | 0.81 | 0.79 | 97 | 1009.6 |
| 20260506174540 | 12 | 70 | 0.0 | 0.0 | 0.00 | 0.79 | 0.76 | 96 | 1009.6 |
| 20260506173039 | 12 | 166 | 0.0 | 0.0 | 0.00 | 0.79 | 0.76 | 97 | 1009.6 |
| 20260506171549 | 13 | 103 | 0.0 | 0.0 | 0.00 | 0.79 | 0.76 | 97 | 1009.6 |
| 20260506170038 | 13 | 103 | 0.0 | 0.0 | 0.03 | 0.79 | 0.76 | 97 | 1009.8 |
| 20260506164538 | 13 | 134 | 0.0 | 0.0 | 0.05 | 0.79 | 0.76 | 97 | 1009.9 |
| 20260506163046 | 13 | 109 | 0.0 | 0.0 | 0.05 | 0.79 | 0.76 | 97 | 1009.9 |
| 20260506161547 | 13 | 82 | 0.0 | 0.0 | 0.05 | 0.79 | 0.76 | 96 | 1010.0 |
| 20260506160033 | 13 | 83 | 0.0 | 0.0 | 0.05 | 0.76 | 0.71 | 96 | 1010.2 |
| 20260506154531 | 13 | 76 | 0.0 | 1.6 | 0.15 | 0.71 | 0.71 | 96 | 1010.2 |
| 20260506153031 | 12 | 97 | 0.0 | 0.0 | 0.15 | 0.71 | 0.71 | 97 | 1010.5 |
| 20260506151530 | 12 | 40 | 0.0 | 0.0 | 0.15 | 0.71 | 0.71 | 97 | 1010.6 |
| 20260506150033 | 12 | 141 | 0.0 | 0.0 | 0.10 | 0.71 | 0.69 | 97 | 1010.6 |
| 20260506144528 | 12 | 126 | 0.0 | 0.0 | 0.00 | 0.61 | 0.58 | 96 | 1010.3 |
| 20260506143027 | 12 | 127 | 0.0 | 0.0 | 0.00 | 0.61 | 0.58 | 96 | 1010.5 |
| 20260506141525 | 12 | 88 | 0.0 | 0.0 | 0.00 | 0.61 | 0.58 | 95 | 1010.6 |
| 20260506140024 | 12 | 117 | 0.0 | 8.0 | 0.00 | 0.61 | 0.58 | 94 | 1010.8 |
| 20260506134553 | 12 | 94 | 0.0 | 0.0 | 0.00 | 0.61 | 0.58 | 95 | 1010.9 |
| 20260506133022 | 12 | 82 | 0.0 | 0.0 | 0.00 | 0.61 | 0.58 | 95 | 1011.1 |
| 20260506131526 | 12 | 61 | 0.0 | 0.0 | 0.03 | 0.61 | 0.58 | 95 | 1011.1 |
| 20260506130021 | 12 | 62 | 0.0 | 0.0 | 0.03 | 0.61 | 0.58 | 95 | 1011.1 |
| 20260506124519 | 12 | 94 | 0.0 | 0.0 | 0.05 | 0.61 | 0.58 | 96 | 1011.1 |
| 20260506123019 | 12 | 80 | 0.0 | 8.0 | 0.05 | 0.61 | 0.58 | 95 | 1011.1 |
| 20260506121518 | 12 | 53 | 0.0 | 0.0 | 0.03 | 0.58 | 0.56 | 96 | 1011.2 |
| 20260506120018 | 12 | 107 | 0.0 | 0.0 | 0.03 | 0.58 | 0.56 | 95 | 1011.2 |
| 20260506114524 | 12 | 103 | 0.0 | 12.9 | 0.03 | 0.56 | 0.53 | 95 | 1011.2 |
| 20260506113018 | 12 | 55 | 0.0 | 0.0 | 0.03 | 0.56 | 0.53 | 96 | 1011.3 |
| 20260506111515 | 12 | 61 | 0.0 | 0.0 | 0.03 | 0.56 | 0.53 | 95 | 1011.4 |
| 20260506110017 | 12 | 71 | 0.0 | 0.0 | 0.05 | 0.56 | 0.53 | 94 | 1011.6 |
| 20260506104514 | 13 | 66 | 0.0 | 0.0 | 0.05 | 0.53 | 0.51 | 95 | 1011.8 |
| 20260506103022 | 13 | 88 | 0.0 | 0.0 | 0.05 | 0.53 | 0.51 | 95 | 1011.6 |
| 20260506101513 | 13 | 61 | 1.6 | 14.5 | 0.08 | 0.53 | 0.51 | 95 | 1011.6 |
| 20260506100018 | 13 | 85 | 0.0 | 0.0 | 0.18 | 0.51 | 0.48 | 96 | 1011.9 |
| 20260506094515 | 13 | 74 | 0.0 | 0.0 | 0.20 | 0.48 | 0.46 | 97 | 1012.0 |
| 20260506093010 | 13 | 69 | 0.0 | 0.0 | 0.23 | 0.48 | 0.46 | 97 | 1012.2 |
| 20260506091508 | 12 | 69 | 0.0 | 0.0 | 0.23 | 0.46 | 0.43 | 97 | 1012.1 |
| 20260506090007 | 12 | 69 | 0.0 | 0.0 | 0.15 | 0.33 | 0.30 | 97 | 1012.0 |
| 20260506084506 | 12 | 69 | 0.0 | 0.0 | 0.15 | 0.28 | 0.25 | 96 | 1011.9 |
| 20260506083006 | 12 | 69 | 0.0 | 0.0 | 0.18 | 0.25 | 0.23 | 96 | 1011.7 |
| 20260506081506 | 12 | 69 | 0.0 | 0.0 | 0.15 | 0.23 | 0.23 | 97 | 1011.5 |
| 20260506073003 | 12 | 72 | 0.0 | 0.0 | 0.03 | 0.08 | 0.05 | 95 | 1011.6 |
| 20260506071502 | 12 | 81 | 0.0 | 0.0 | 0.03 | 0.08 | 0.05 | 94 | 1011.7 |
| 20260506061558 | 13 | 30 | 0.0 | 0.0 | 0.00 | 0.05 | 0.05 | 95 | 1011.2 |
| 20260506044546 | 11 | 16 | 0.0 | 0.0 | 0.00 | 0.05 | 0.05 | 98 | 1011.4 |
| 20260506043042 | 11 | 16 | 0.0 | 0.0 | 0.00 | 0.05 | 0.05 | 98 | 1011.5 |
| 20260506041541 | 11 | 82 | 0.0 | 0.0 | 0.00 | 0.05 | 0.05 | 98 | 1011.5 |
| 20260506040041 | 11 | 82 | 0.0 | 0.0 | 0.00 | 0.05 | 0.05 | 98 | 1011.4 |
| 20260506034540 | 11 | 82 | 0.0 | 0.0 | 0.00 | 0.05 | 0.05 | 97 | 1011.4 |
| 20260506033037 | 11 | 82 | 0.0 | 0.0 | 0.00 | 0.05 | 0.05 | 97 | 1011.5 |
| 20260506031539 | 11 | 82 | 0.0 | 0.0 | 0.00 | 0.05 | 0.05 | 97 | 1011.7 |
| 20260506030036 | 11 | 82 | 0.0 | 0.0 | 0.00 | 0.05 | 0.05 | 97 | 1011.6 |
| 20260506024539 | 11 | 82 | 0.0 | 0.0 | 0.00 | 0.05 | 0.05 | 97 | 1011.7 |
| 20260506023035 | 11 | 82 | 0.0 | 0.0 | 0.00 | 0.05 | 0.05 | 97 | 1011.9 |
| 20260506021534 | 11 | 82 | 0.0 | 0.0 | 0.03 | 0.05 | 0.05 | 97 | 1011.9 |
| 20260506020033 | 11 | 82 | 0.0 | 0.0 | 0.03 | 0.05 | 0.05 | 97 | 1012.0 |
| 20260506014532 | 11 | 82 | 0.0 | 0.0 | 0.03 | 0.05 | 0.05 | 97 | 1011.8 |
| 20260506013033 | 11 | 82 | 0.0 | 0.0 | 0.03 | 0.05 | 0.05 | 97 | 1011.8 |
| 20260506011558 | 11 | 82 | 0.0 | 0.0 | 0.00 | 0.05 | 0.03 | 97 | 1011.7 |
| 20260506010031 | 11 | 82 | 0.0 | 0.0 | 0.00 | 0.05 | 0.03 | 97 | 1011.7 |
| 20260506004532 | 11 | 82 | 0.0 | 0.0 | 0.00 | 0.05 | 0.03 | 97 | 1011.7 |
| 20260506003029 | 11 | 82 | 0.0 | 0.0 | 0.00 | 0.05 | 0.03 | 97 | 1011.5 |
| 20260506001528 | 11 | 82 | 0.0 | 0.0 | 0.00 | 0.05 | 0.03 | 96 | 1011.7 |
| 20260506000043 | 11 | 82 | 0.0 | 0.0 | 0.00 | 0.05 | 0.03 | 96 | 1012.0 |
| 20260505234538 | 11 | 82 | 0.0 | 0.0 | 0.00 | 0.05 | 0.03 | 96 | 1012.1 |
| 20260505233021 | 11 | 82 | 0.0 | 0.0 | 0.00 | 0.05 | 0.03 | 96 | 1012.2 |
| 20260505231521 | 11 | 82 | 0.0 | 0.0 | 0.00 | 0.05 | 0.03 | 96 | 1012.5 |
| 20260505230044 | 11 | 87 | 0.0 | 0.0 | 0.00 | 0.05 | 0.03 | 96 | 1012.5 |
| 20260505224533 | 11 | 177 | 0.0 | 0.0 | 0.03 | 0.05 | 0.03 | 96 | 1012.6 |
| 20260505223022 | 11 | 70 | 0.0 | 1.6 | 0.03 | 0.05 | 0.03 | 96 | 1012.5 |
| 20260505221518 | 11 | 87 | 0.0 | 0.0 | 0.03 | 0.05 | 0.03 | 96 | 1012.7 |
| 20260505220015 | 11 | 87 | 0.0 | 0.0 | 0.00 | 0.03 | 0.00 | 96 | 1012.6 |
| 20260505214520 | 11 | 87 | 0.0 | 0.0 | 0.00 | 0.03 | 0.03 | 96 | 1012.7 |
| 20260505213016 | 11 | 87 | 0.0 | 0.0 | 0.00 | 0.03 | 0.03 | 96 | 1012.7 |
| 20260505211524 | 11 | 87 | 0.0 | 0.0 | 0.00 | 0.03 | 0.03 | 96 | 1012.8 |
| 20260505210013 | 11 | 87 | 0.0 | 0.0 | 0.03 | 0.03 | 0.03 | 95 | 1013.0 |
| 20260505204512 | 11 | 87 | 0.0 | 0.0 | 0.03 | 0.03 | 0.03 | 95 | 1013.0 |
| 20260505203014 | 11 | 87 | 0.0 | 0.0 | 0.03 | 0.03 | 0.03 | 95 | 1013.0 |